Simultaneous Nadir Overpasses (SNOs) Predictions

Prediction of SNOs between GOES-16 and AQUA Satellite Orbit:

Table of predicted SNOs for the next 14.0 days since TLE Epoch: 12/25/2021
Index Date Time (GOES-16) GOES-16 Lat,Lon AQUA Lat,Lon Distance(km) Time Diff (sec)
1 12/26/2021 06:30:16 -0.03, -75.18 -0.29, -73.91 143.51 80
2 12/26/2021 18:51:41 0.04, -75.18 -0.79, -79.11 446.22 80
3 12/28/2021 06:18:06 -0.03, -75.18 -0.93, -70.96 480.59 80
4 12/28/2021 18:39:31 0.03, -75.19 -0.15, -76.16 108.97 80
5 12/30/2021 18:30:00 0.02, -75.20 0.45, -73.19 228.64 80
6 12/31/2021 06:51:16 -0.02, -75.20 0.62, -78.35 357.71 80
7 01/02/2022 06:39:05 -0.01, -75.21 0.01, -75.39 19.94 80
8 01/04/2022 06:24:14 -0.00, -75.23 -0.61, -72.43 318.44 80
9 01/04/2022 18:45:37 0.00, -75.23 -0.51, -77.62 270.99 80
10 01/06/2022 18:36:07 0.00, -75.26 0.13, -74.66 68.49 80
